カタログに戻る

STARLINK-37768

運用中通信SSO
NORAD 69331·PAYLOAD·🇺🇸 United States

打ち上げ Jun 3, 2026 から Vandenberg Space Force Base

Loading…

次のパス (今後24時間)

TLE

最新Source: CelesTrak SupGP

元期: Sep 14, 2026, 15:37 UTC

1 69331C 26122C   26257.65118056 -.00035086  00000+0 -10873-2 0  2570
2 69331  97.2826 286.2899 0001766 102.4581  81.4899 15.33510826    17

AllMySatでSTARLINK-37768をリアルタイム追跡

Download on the App Store